[[{"header":{"parameterUnit":"m.s-1","parameterCategory":2,"la1":30.2991,"la2":30.254,"lo1":-89.0895,"lo2":-89.0444,"dy":0.0017,"dx":0.0017,"nx":28,"ny":28,"refTime":"2026-02-03T03:00:00:Z","depth":"0","parameterNumber":2,"parameterNumberName":"U-component_of_CURRENTS"},"data":[0,0,0,0,0,0,0,0,0,0,0,0,0,0,0,0,0,0,0,0,0,0,0,0,0,0,0,0,0,0,0,0,0,0,0,0,0,0,0,0,0,0,0,0,0,0,0,0,0,0,0,0,0,0,0,0,0,0,-0.1098,-0.1099,0,-0.119,-0.1192,-0.1193,-0.1256,-0.1256,-0.1256,-0.1256,-0.1225,-0.1224,-0.1223,0,0,0,0,0,0,0,0,0,0,0,0,0,-0.0911,-0.0916,-0.1098,-0.1099,-0.11,-0.119,-0.1192,-0.1194,-0.1256,-0.1256,-0.1256,-0.1256,-0.1225,-0.1224,-0.1223,0,0,0,0,0,0,0,0,0,0,0,0,0,-0.1003,-0.0917,-0.1098,-0.1137,-0.1141,-0.119,-0.1192,-0.1194,-0.1256,-0.1256,-0.1256,-0.1256,-0.1225,-0.1224,-0.1223,-0.1219,0,0,-0.122,-0.1219,0,0,0,0,0,0,0,0,-0.0997,-0.101,-0.1131,-0.1135,-0.1139,-0.1207,-0.1115,-0.1194,-0.1256,-0.1219,-0.1256,-0.1256,-0.1203,-0.1204,-0.1232,-0.1217,-0.1216,-0.122,-0.1219,-0.1218,-0.1218,0,0,0,0,0,0,0,-0.0991,-0.1006,-0.1141,-0.1131,-0.1136,-0.1127,-0.1142,-0.1131,-0.1213,-0.1222,-0.1225,-0.1226,-0.1206,-0.1233,-0.1231,-0.1215,-0.122,-0.1219,-0.1218,-0.1218,-0.1204,-0.1204,0,0,0,0,0,0,-0.0973,-0.1001,-0.1138,-0.1143,-0.106,-0.1131,-0.1147,-0.119,-0.1216,-0.1219,-0.1226,-0.1229,-0.1235,-0.1232,-0.123,-0.1145,-0.1218,-0.1217,-0.1217,-0.1204,-0.1204,-0.1204,0,0,0,0,0,0,-0.0969,-0.0986,-0.1134,-0.1066,-0.1084,-0.1134,-0.1182,-0.1191,-0.1202,-0.1219,-0.1221,-0.1224,-0.1235,-0.1231,-0.1227,-0.1146,-0.1217,-0.1216,-0.1203,-0.1204,-0.1204,-0.1025,0,0,0,0,0,0,-0.0964,-0.0985,-0.0979,-0.1067,-0.1087,-0.1171,-0.1181,-0.1193,-0.1201,-0.1205,-0.1217,-0.1217,-0.1234,-0.1229,-0.1226,-0.1146,-0.1215,-0.1203,-0.1203,-0.1204,-0.103,-0.1019,-0.101,0,0,0,0,0,-0.0958,-0.0988,-0.098,-0.0993,-0.1089,-0.1171,-0.1183,-0.1219,-0.12,-0.1223,-0.1225,-0.1215,-0.123,-0.1228,-0.1225,-0.1142,-0.1203,-0.1203,-0.1204,-0.1035,-0.1021,-0.101,0,0,0,0,0,0,-0.0907,-0.0999,-0.0992,-0.1045,-0.1092,-0.118,-0.1196,-0.1201,-0.1224,-0.1225,-0.1218,-0.1219,-0.1184,-0.1213,-0.121,-0.1154,-0.1214,-0.1214,-0.1087,-0.1074,-0.1064,-0.1096,-0.1214,0,0,0,0,0,-0.0886,-0.0926,-0.1005,-0.1032,-0.1066,-0.1113,-0.1133,-0.1174,-0.1212,-0.1223,-0.1213,-0.1213,-0.1189,-0.1172,-0.1187,-0.1146,-0.119,-0.1101,-0.109,-0.108,-0.1112,-0.1129,-0.1122,-0.1207,-0.1207,-0.1207,0,0,-0.0848,-0.0915,-0.0921,-0.1018,-0.1062,-0.1103,-0.113,-0.1194,-0.1186,-0.1211,-0.1184,-0.1177,-0.1179,-0.1142,-0.1127,-0.1146,-0.1071,-0.1081,-0.1071,-0.111,-0.1129,-0.112,-0.1113,-0.1207,-0.1207,-0.1207,0,0,-0.0826,-0.0886,-0.0907,-0.0972,-0.1052,-0.1093,-0.11,-0.1177,-0.1174,-0.1159,-0.1159,-0.1122,-0.1094,-0.1077,-0.1057,-0.1006,-0.1024,-0.0993,-0.0937,-0.095,-0.0942,-0.0936,-0.0928,-0.0922,-0.0974,-0.0973,-0.0973,0,-0.0737,-0.0831,-0.0917,-0.0979,-0.0989,-0.1078,-0.1083,-0.1122,-0.1165,-0.1148,-0.1139,-0.107,-0.1061,-0.0978,-0.0966,-0.097,-0.0993,-0.0959,-0.093,-0.0926,-0.0923,-0.0917,-0.0913,-0.0965,-0.0966,-0.0967,-0.0967,0,-0.0755,-0.082,-0.0859,-0.0939,-0.0957,-0.1017,-0.1064,-0.1108,-0.1082,-0.1075,-0.1002,-0.0979,-0.0956,-0.0899,-0.0907,-0.0854,-0.0879,-0.0913,-0.0944,-0.0902,-0.0899,-0.0898,-0.0952,-0.0955,-0.0958,-0.096,0,0,-0.0623,-0.0801,-0.0817,-0.0884,-0.0948,-0.1015,-0.0997,-0.1016,-0.1038,-0.0992,-0.0933,-0.0845,-0.0849,-0.0837,-0.0807,-0.0781,-0.0738,-0.0834,-0.0838,-0.0795,-0.0755,-0.0744,-0.0743,-0.076,-0.0761,-0.0761,-0.074,0,-0.0592,-0.0682,-0.0738,-0.0822,-0.0905,-0.0963,-0.0942,-0.0974,-0.0964,-0.0968,-0.0883,-0.0827,-0.0813,-0.0777,-0.0756,-0.0704,-0.0741,-0.0742,-0.0834,-0.0837,-0.0807,-0.0744,-0.0603,-0.0573,-0.074,-0.074,-0.074,0,-0.0625,-0.0706,-0.072,-0.0862,-0.0883,-0.0905,-0.0953,-0.0957,-0.0968,-0.0933,-0.087,-0.0837,-0.0714,-0.077,-0.0675,-0.0669,-0.0766,-0.0748,-0.0748,-0.0818,-0.0828,-0.066,-0.0567,-0.064,-0.074,-0.074,-0.074,0,-0.062,-0.0733,-0.0733,-0.0782,-0.0899,-0.091,-0.0941,-0.0952,-0.0927,-0.0927,-0.0874,-0.0775,-0.0686,-0.0707,-0.0711,-0.0682,-0.0684,-0.0639,-0.0746,-0.0744,-0.069,-0.0684,-0.0663,-0.0764,-0.0764,-0.0764,-0.0764,0,-0.0646,-0.0704,-0.0774,-0.0851,-0.0852,-0.0941,-0.0925,-0.0966,-0.0953,-0.0876,-0.0871,-0.0776,-0.0682,-0.0672,-0.0714,-0.0697,-0.0706,-0.0739,-0.0742,-0.062,-0.0609,-0.073,-0.0782,-0.0763,-0.0763,-0.0764,-0.0764,0,-0.0618,-0.0696,-0.0759,-0.0856,-0.0878,-0.088,-0.0876,-0.091,-0.0902,-0.0803,-0.077,-0.0716,-0.0594,-0.0609,-0.0611,-0.0666,-0.0689,-0.0797,-0.0648,-0.0634,-0.0631,-0.0678,-0.0734,-0.0713,-0.0713,-0.0713,-0.0712,0,-0.056,-0.0615,-0.0678,-0.0706,-0.0737,-0.0763,-0.078,-0.0836,-0.0823,-0.0739,-0.0681,-0.0595,-0.0476,-0.0475,-0.0515,-0.0557,-0.0729,-0.0624,-0.0551,-0.0616,-0.0671,-0.0733,-0.0716,-0.0379,-0.0376,-0.0373,-0.0371,0,-0.0465,-0.048,-0.051,-0.0545,-0.0599,-0.0579,-0.0619,-0.0579,-0.0607,-0.0542,-0.0437,-0.0349,-0.0306,-0.018,-0.0343,-0.0424,-0.0542,-0.0572,-0.0671,-0.0441,-0.0478,-0.0463,-0.0413,-0.035,-0.0352,-0.0353,-0.0355,-0.0355,-0.0326,-0.0253,-0.0332,-0.0376,-0.0379,-0.0357,-0.0329,-0.0327,-0.0255,-0.0083,-0.0153,-0.0005,0.0071,0.0026,-0.0168,-0.037,-0.0377,-0.0363,-0.0418,-0.0482,-0.0455,-0.0365,-0.0303,-0.0305,-0.0307,-0.0308,-0.0309,0,-0.0256,-0.0235,-0.019,-0.0201,-0.0185,-0.0271,-0.0203,-0.0175,-0.0021,0.0134,0.0261,0.0379,0.0376,0.0199,-0.0036,-0.0214,-0.027,-0.0316,-0.0347,-0.0335,-0.0255,-0.0236,-0.0119,-0.0119,-0.0119,-0.0119,-0.0119,-0.0119,-0.0259,-0.0253,-0.0233,-0.0137,-0.0108,-0.0048,-0.0025,0.0127,0.0238,0.0493,0.0595,0.0685,0.051,0.0124,-0.024,-0.0314,-0.0411,-0.0368,-0.0499,-0.0429,-0.0438,-0.0446,-0.0441,-0.0369,-0.0369,-0.0482,-0.0483,-0.0484]},{"header":{"parameterUnit":"m.s-1","parameterCategory":2,"la1":30.2991,"la2":30.254,"lo1":-89.0895,"lo2":-89.0444,"dy":0.0017,"dx":0.0017,"nx":28,"ny":28,"refTime":"2026-02-03T03:00:00:Z","depth":"0","parameterNumber":3,"parameterNumberName":"V-component_of_CURRENTS"},"data":[0,0,0,0,0,0,0,0,0,0,0,0,0,0,0,0,0,0,0,0,0,0,0,0,0,0,0,0,0,0,0,0,0,0,0,0,0,0,0,0,0,0,0,0,0,0,0,0,0,0,0,0,0,0,0,0,0,0,0.0885,0.0886,0,0.1002,0.1005,0.1007,0.1086,0.1085,0.1084,0.1084,0.114,0.1142,0.1144,0,0,0,0,0,0,0,0,0,0,0,0,0,0.0863,0.0864,0.0885,0.0886,0.0886,0.1002,0.1005,0.1008,0.1086,0.1085,0.1084,0.1083,0.1139,0.1142,0.1145,0,0,0,0,0,0,0,0,0,0,0,0,0,0.0929,0.0864,0.0885,0.0928,0.0932,0.1001,0.1005,0.1009,0.1086,0.1085,0.1084,0.1083,0.1138,0.1142,0.1145,0.1188,0,0,0.1155,0.1157,0,0,0,0,0,0,0,0,0.0925,0.0932,0.0922,0.0925,0.093,0.1016,0.1017,0.1061,0.1086,0.1043,0.1084,0.1082,0.1084,0.1092,0.1138,0.1191,0.1193,0.1155,0.1157,0.1159,0.116,0,0,0,0,0,0,0,0.092,0.0927,0.0946,0.0922,0.0926,0.0986,0.0995,0.1028,0.1078,0.1046,0.1049,0.104,0.1088,0.1135,0.1139,0.1194,0.1155,0.1158,0.116,0.1162,0.119,0.1189,0,0,0,0,0,0,0.0871,0.0922,0.0942,0.0948,0.0908,0.0986,0.0996,0.1001,0.108,0.1087,0.104,0.1043,0.113,0.1135,0.1141,0.1115,0.1159,0.1162,0.1164,0.1191,0.119,0.1188,0,0,0,0,0,0,0.0871,0.0873,0.0937,0.0926,0.0936,0.0985,0.0992,0.1004,0.102,0.1073,0.1082,0.1038,0.1129,0.1137,0.1166,0.112,0.1163,0.1166,0.1192,0.1191,0.1189,0.1113,0,0,0,0,0,0,0.087,0.0873,0.0863,0.0923,0.0935,0.0925,0.0991,0.1006,0.1011,0.1015,0.1074,0.1081,0.1129,0.1161,0.1169,0.1125,0.1169,0.1194,0.1192,0.1189,0.1117,0.1108,0.1101,0,0,0,0,0,0.087,0.0826,0.0863,0.0864,0.0919,0.0921,0.0934,0.0976,0.101,0.0994,0.1068,0.1077,0.115,0.1164,0.1174,0.1129,0.1195,0.1192,0.119,0.112,0.111,0.1101,0,0,0,0,0,0,0.0789,0.0831,0.0872,0.084,0.0862,0.0928,0.0909,0.0956,0.1009,0.102,0.1089,0.11,0.1109,0.1129,0.1143,0.1128,0.1162,0.1162,0.1106,0.1097,0.1089,0.1075,0.1172,0,0,0,0,0,0.0773,0.0784,0.081,0.0799,0.0786,0.0855,0.0864,0.0901,0.0949,0.0972,0.1034,0.1081,0.1113,0.1111,0.1156,0.1151,0.1164,0.1119,0.1111,0.1105,0.1098,0.1106,0.1099,0.1179,0.1179,0.1179,0,0,0.0739,0.077,0.0772,0.0787,0.0813,0.0817,0.0859,0.0853,0.0875,0.0968,0.1019,0.107,0.1112,0.1124,0.1122,0.1125,0.1082,0.1101,0.1095,0.1092,0.1102,0.1095,0.1088,0.1177,0.1177,0.1178,0,0,0.068,0.0695,0.068,0.0689,0.0708,0.0763,0.0746,0.0806,0.0826,0.0882,0.0954,0.099,0.104,0.1074,0.1089,0.1059,0.1059,0.1036,0.0967,0.0974,0.0968,0.0962,0.0942,0.0936,0.101,0.101,0.101,0,0.0677,0.0638,0.0668,0.0652,0.0658,0.0729,0.0711,0.0748,0.083,0.0834,0.0873,0.099,0.1023,0.1036,0.1018,0.1042,0.1028,0.1,0.0964,0.0959,0.0955,0.0936,0.093,0.1006,0.1007,0.1007,0.1007,0,0.0609,0.0573,0.0545,0.0589,0.0599,0.0583,0.0629,0.0658,0.0717,0.0763,0.0797,0.0892,0.0939,0.0945,0.097,0.094,0.0933,0.0972,0.0988,0.0942,0.0925,0.092,0.1,0.1002,0.1003,0.1004,0,0,0.0638,0.0536,0.0542,0.0504,0.056,0.0559,0.0583,0.0604,0.0599,0.0693,0.0698,0.0771,0.081,0.083,0.0875,0.0877,0.0829,0.088,0.0883,0.0859,0.0803,0.0829,0.0826,0.0846,0.0845,0.0845,0.0793,0,0.0601,0.0538,0.0523,0.0476,0.0411,0.0476,0.0492,0.0528,0.0566,0.059,0.0664,0.0704,0.0761,0.0783,0.0789,0.0873,0.0815,0.0837,0.0852,0.0852,0.0881,0.0822,0.0945,0.0912,0.0789,0.0788,0.0787,0,0.0543,0.0496,0.0435,0.0353,0.0342,0.0352,0.0381,0.0409,0.0443,0.0462,0.0514,0.0577,0.0646,0.068,0.076,0.0766,0.0731,0.0774,0.0774,0.0824,0.0869,0.0943,0.0908,0.1032,0.078,0.0781,0.0781,0,0.0522,0.0428,0.0385,0.0368,0.0321,0.03,0.0322,0.0352,0.0366,0.0389,0.0409,0.0492,0.0565,0.0601,0.0667,0.0705,0.0712,0.0793,0.0761,0.0762,0.0887,0.09,0.098,0.0726,0.0726,0.0726,0.0726,0,0.0471,0.0409,0.0342,0.0304,0.0252,0.0236,0.0208,0.0237,0.0263,0.0273,0.0337,0.0379,0.0539,0.0571,0.0613,0.068,0.0662,0.0733,0.0751,0.086,0.0871,0.1003,0.1042,0.0724,0.0725,0.0725,0.0725,0,0.0455,0.0392,0.031,0.0244,0.0218,0.0198,0.0174,0.0146,0.0179,0.0207,0.0228,0.0317,0.0389,0.0466,0.0534,0.0628,0.0766,0.0635,0.0737,0.0769,0.0979,0.1008,0.1048,0.116,0.0707,0.0707,0.0707,0,0.0449,0.0388,0.0344,0.0254,0.0205,0.015,0.0115,0.0132,0.0118,0.0176,0.0193,0.0239,0.028,0.0403,0.0549,0.0621,0.067,0.0755,0.0874,0.0986,0.1032,0.1038,0.1132,0.0995,0.0997,0.1,0.1001,0,0.0405,0.0413,0.0387,0.0252,0.0149,0.0116,0.0055,0.0059,0.0094,0.0117,0.0149,0.0186,0.0287,0.0502,0.0583,0.0652,0.0944,0.0803,0.0914,0.1248,0.1267,0.1386,0.1002,0.102,0.1018,0.1017,0.1016,0.1015,0.0427,0.0456,0.0391,0.0232,0.0133,0.0086,0.0083,0.0049,0.0091,0.018,0.0148,0.0209,0.052,0.0721,0.0751,0.105,0.1013,0.1238,0.1253,0.1238,0.139,0.1019,0.1066,0.1064,0.1063,0.1062,0.1061,0,0.0415,0.0403,0.0323,0.0188,0.0058,0.0038,0.0046,0.0078,0.0143,0.019,0.0231,0.0467,0.0783,0.0987,0.1405,0.1541,0.159,0.1611,0.1693,0.1765,0.1451,0.1514,0.1668,0.1668,0.1668,0.1668,0.1668,0.1667,0.0392,0.0326,0.0311,0.0076,0.0012,-0.0042,0.0004,0.0147,0.0199,0.0376,0.0462,0.0541,0.0996,0.152,0.1887,0.1915,0.2055,0.2022,0.2056,0.1891,0.1859,0.1829,0.1901,0.2133,0.2134,0.2449,0.2452,0.2454]}],[{"header":{"parameterUnit":"m.s-1","parameterCategory":2,"la1":30.2991,"la2":30.254,"lo1":-89.0895,"lo2":-89.0444,"dy":0.0017,"dx":0.0017,"nx":28,"ny":28,"refTime":"2026-02-03T03:00:00:Z","depth":"2","parameterNumber":2,"parameterNumberName":"U-component_of_CURRENTS"},"data":[0,0,0,0,0,0,0,0,0,0,0,0,0,0,0,0,0,0,0,0,0,0,0,0,0,0,0,0,0,0,0,0,0,0,0,0,0,0,0,0,0,0,0,0,0,0,0,0,0,0,0,0,0,0,0,0,0,0,-0.2397,-0.2397,0,-0.2444,-0.2444,-0.2445,-0.2518,-0.252,-0.2521,-0.2522,-0.2599,-0.26,-0.2601,0,0,0,0,0,0,0,0,0,0,0,0,0,-0.238,-0.2379,-0.2397,-0.2397,-0.2398,-0.2444,-0.2444,-0.2445,-0.2518,-0.252,-0.2521,-0.2523,-0.2599,-0.26,-0.2601,0,0,0,0,0,0,0,0,0,0,0,0,0,-0.2402,-0.2379,-0.2397,-0.2441,-0.2445,-0.2444,-0.2444,-0.2445,-0.2517,-0.252,-0.2522,-0.2524,-0.2599,-0.26,-0.2601,-0.2565,0,0,-0.2604,-0.2605,0,0,0,0,0,0,0,0,-0.24,-0.2402,-0.2434,-0.2438,-0.2443,-0.2478,-0.2467,-0.2487,-0.2517,-0.2489,-0.2522,-0.2525,-0.2561,-0.2565,-0.2567,-0.2569,-0.2572,-0.2604,-0.2605,-0.2606,-0.2606,0,0,0,0,0,0,0,-0.2399,-0.2401,-0.2414,-0.2434,-0.244,-0.2462,-0.2467,-0.2471,-0.2512,-0.2492,-0.2497,-0.2504,-0.2564,-0.2566,-0.257,-0.2573,-0.2604,-0.2605,-0.2606,-0.2606,-0.2764,-0.2768,0,0,0,0,0,0,-0.2392,-0.2399,-0.2413,-0.2416,-0.2428,-0.246,-0.2466,-0.2464,-0.2512,-0.2521,-0.2502,-0.2507,-0.2563,-0.2568,-0.2573,-0.2688,-0.2605,-0.2607,-0.2607,-0.2761,-0.2765,-0.2769,0,0,0,0,0,0,-0.2391,-0.2392,-0.2411,-0.241,-0.2414,-0.2458,-0.2455,-0.2464,-0.2483,-0.2519,-0.2529,-0.2515,-0.2565,-0.2571,-0.2627,-0.2685,-0.2607,-0.2608,-0.2756,-0.2762,-0.2767,-0.2818,0,0,0,0,0,0,-0.239,-0.2391,-0.2412,-0.2409,-0.2414,-0.2424,-0.2453,-0.2463,-0.2483,-0.2491,-0.2533,-0.2542,-0.2567,-0.2625,-0.2628,-0.2686,-0.2609,-0.2752,-0.2759,-0.2765,-0.2812,-0.2825,-0.2835,0,0,0,0,0,-0.2389,-0.2432,-0.2412,-0.2416,-0.2432,-0.2424,-0.2428,-0.2467,-0.2482,-0.2491,-0.2546,-0.2541,-0.2671,-0.2628,-0.263,-0.269,-0.2749,-0.2757,-0.2765,-0.2807,-0.2822,-0.2835,0,0,0,0,0,0,-0.242,-0.2442,-0.2422,-0.2462,-0.2437,-0.2437,-0.247,-0.2464,-0.2508,-0.2534,-0.2558,-0.2572,-0.2659,-0.266,-0.2612,-0.2763,-0.2719,-0.2728,-0.2751,-0.2765,-0.2776,-0.2727,-0.261,0,0,0,0,0,-0.243,-0.2465,-0.245,-0.2462,-0.2468,-0.2454,-0.2465,-0.2472,-0.2498,-0.2519,-0.255,-0.2611,-0.2687,-0.2712,-0.2769,-0.2811,-0.2745,-0.2865,-0.2876,-0.2886,-0.2853,-0.2779,-0.2777,-0.2795,-0.2795,-0.2795,0,0,-0.2428,-0.245,-0.2461,-0.2471,-0.2464,-0.2481,-0.2468,-0.2482,-0.2508,-0.2519,-0.2591,-0.2645,-0.2712,-0.2802,-0.2839,-0.2808,-0.2859,-0.2896,-0.2903,-0.2864,-0.2786,-0.2783,-0.278,-0.28,-0.2799,-0.2798,0,0,-0.2438,-0.2468,-0.2497,-0.2494,-0.2499,-0.2511,-0.2511,-0.2515,-0.2545,-0.26,-0.2648,-0.2719,-0.2809,-0.2865,-0.291,-0.3005,-0.293,-0.305,-0.3051,-0.2981,-0.2976,-0.2971,-0.2916,-0.2905,-0.3045,-0.3045,-0.3045,0,-0.2443,-0.247,-0.2493,-0.2513,-0.253,-0.2525,-0.2539,-0.2567,-0.2589,-0.2604,-0.2646,-0.2769,-0.2844,-0.2918,-0.3,-0.3026,-0.2964,-0.2988,-0.2986,-0.298,-0.2973,-0.2918,-0.2905,-0.3049,-0.3048,-0.3048,-0.3048,0,-0.245,-0.2487,-0.2506,-0.2543,-0.256,-0.2576,-0.2605,-0.2631,-0.268,-0.2693,-0.2769,-0.285,-0.2908,-0.2981,-0.304,-0.3056,-0.3022,-0.3009,-0.2928,-0.2973,-0.2915,-0.29,-0.3054,-0.3052,-0.3051,-0.3051,0,0,-0.2411,-0.2505,-0.2501,-0.252,-0.2586,-0.2581,-0.2655,-0.2688,-0.2709,-0.2762,-0.2778,-0.2945,-0.2939,-0.2988,-0.3039,-0.3011,-0.2981,-0.3002,-0.2997,-0.2908,-0.2813,-0.2706,-0.2679,-0.2942,-0.294,-0.2938,-0.2799,0,-0.2403,-0.2461,-0.2516,-0.255,-0.2585,-0.2627,-0.2688,-0.2717,-0.2768,-0.279,-0.2839,-0.2903,-0.2955,-0.2998,-0.2973,-0.3,-0.294,-0.3019,-0.2816,-0.281,-0.2674,-0.2658,-0.2479,-0.233,-0.2784,-0.2782,-0.278,0,-0.2387,-0.2434,-0.2503,-0.2568,-0.2583,-0.2628,-0.269,-0.2721,-0.2765,-0.2805,-0.2818,-0.2849,-0.288,-0.2901,-0.2845,-0.2885,-0.2843,-0.2828,-0.282,-0.2675,-0.2674,-0.2358,-0.2286,-0.2755,-0.2757,-0.2759,-0.276,0,-0.2341,-0.2412,-0.2483,-0.2505,-0.2598,-0.2641,-0.2673,-0.2731,-0.275,-0.2786,-0.2811,-0.2802,-0.2833,-0.2753,-0.277,-0.2794,-0.266,-0.2682,-0.2514,-0.2507,-0.2289,-0.2266,-0.2556,-0.2556,-0.2556,-0.2556,-0.2557,0,-0.2346,-0.236,-0.2476,-0.2501,-0.2549,-0.2613,-0.2658,-0.2686,-0.2735,-0.2745,-0.2793,-0.2792,-0.2793,-0.2741,-0.2708,-0.2564,-0.2592,-0.2478,-0.2442,-0.2312,-0.2294,-0.261,-0.2618,-0.2551,-0.2552,-0.2553,-0.2554,0,-0.229,-0.238,-0.2424,-0.2522,-0.2546,-0.2568,-0.2631,-0.2639,-0.2715,-0.2724,-0.2739,-0.2778,-0.2702,-0.2654,-0.2558,-0.2492,-0.2372,-0.2298,-0.216,-0.2109,-0.228,-0.2294,-0.2077,-0.2072,-0.2067,-0.2063,-0.206,0,-0.229,-0.2314,-0.2398,-0.2441,-0.2502,-0.2546,-0.2567,-0.2618,-0.2632,-0.2703,-0.2691,-0.2659,-0.2599,-0.2411,-0.2254,-0.2074,-0.2199,-0.1837,-0.1845,-0.2232,-0.2221,-0.2242,-0.2261,-0.1601,-0.1594,-0.1589,-0.1584,0,-0.223,-0.2263,-0.2302,-0.2378,-0.2427,-0.2428,-0.247,-0.247,-0.253,-0.2548,-0.254,-0.2501,-0.2345,-0.2092,-0.1887,-0.1755,-0.1857,-0.1716,-0.2102,-0.1761,-0.1773,-0.1767,-0.1803,-0.1535,-0.154,-0.1544,-0.1546,-0.1548,-0.2174,-0.2156,-0.2217,-0.2284,-0.2327,-0.23,-0.2243,-0.2282,-0.2236,-0.2212,-0.2289,-0.2154,-0.2123,-0.1672,-0.1503,-0.1321,-0.1467,-0.1406,-0.1426,-0.1452,-0.1432,-0.1436,-0.1132,-0.1135,-0.1137,-0.1139,-0.1141,0,-0.2073,-0.2056,-0.2111,-0.2136,-0.2109,-0.2199,-0.2162,-0.2067,-0.1967,-0.1952,-0.1906,-0.1616,-0.1417,-0.1343,-0.1004,-0.0921,-0.0916,-0.0851,-0.0905,-0.0952,-0.0995,-0.0957,-0.0528,-0.0526,-0.0525,-0.0523,0,0,-0.204,-0.1975,-0.1985,-0.192,-0.1953,-0.1834,-0.1789,-0.1661,-0.1599,-0.1435,-0.1335,-0.139,-0.1378,-0.1025,-0.0896,-0.0693,-0.0816,-0.0597,-0.1089,-0.1208,-0.125,-0.1305,-0.1297,0,0,0,0,0]},{"header":{"parameterUnit":"m.s-1","parameterCategory":2,"la1":30.2991,"la2":30.254,"lo1":-89.0895,"lo2":-89.0444,"dy":0.0017,"dx":0.0017,"nx":28,"ny":28,"refTime":"2026-02-03T03:00:00:Z","depth":"2","parameterNumber":3,"parameterNumberName":"V-component_of_CURRENTS"},"data":[0,0,0,0,0,0,0,0,0,0,0,0,0,0,0,0,0,0,0,0,0,0,0,0,0,0,0,0,0,0,0,0,0,0,0,0,0,0,0,0,0,0,0,0,0,0,0,0,0,0,0,0,0,0,0,0,0,0,-0.0612,-0.0612,0,-0.0578,-0.0577,-0.0577,-0.0529,-0.0528,-0.0527,-0.0526,-0.0393,-0.039,-0.0387,0,0,0,0,0,0,0,0,0,0,0,0,0,-0.0663,-0.0663,-0.0612,-0.0612,-0.0611,-0.0578,-0.0577,-0.0577,-0.053,-0.0528,-0.0527,-0.0526,-0.0393,-0.039,-0.0387,0,0,0,0,0,0,0,0,0,0,0,0,0,-0.0638,-0.0662,-0.0612,-0.0582,-0.0578,-0.0578,-0.0577,-0.0577,-0.053,-0.0528,-0.0527,-0.0525,-0.0394,-0.0391,-0.0387,-0.0393,0,0,-0.0375,-0.0373,0,0,0,0,0,0,0,0,-0.064,-0.0637,-0.0587,-0.0584,-0.058,-0.0554,-0.0546,-0.051,-0.053,-0.0551,-0.0526,-0.0525,-0.0437,-0.043,-0.0431,-0.0386,-0.038,-0.0374,-0.0372,-0.037,-0.0369,0,0,0,0,0,0,0,-0.0641,-0.0638,-0.0601,-0.0586,-0.0582,-0.0578,-0.0573,-0.054,-0.0503,-0.0549,-0.0545,-0.0538,-0.0435,-0.0435,-0.0427,-0.0379,-0.0374,-0.0371,-0.0369,-0.0367,-0.0211,-0.0209,0,0,0,0,0,0,-0.0642,-0.064,-0.0602,-0.0599,-0.0604,-0.0578,-0.0573,-0.0566,-0.0505,-0.0494,-0.0539,-0.0536,-0.0443,-0.0432,-0.0422,-0.0349,-0.037,-0.0367,-0.0364,-0.0213,-0.021,-0.0209,0,0,0,0,0,0,-0.0643,-0.0639,-0.0603,-0.0617,-0.0612,-0.0579,-0.0572,-0.0566,-0.0563,-0.0498,-0.0486,-0.0541,-0.0441,-0.0428,-0.0393,-0.0346,-0.0365,-0.0361,-0.0215,-0.0212,-0.021,-0.0252,0,0,0,0,0,0,-0.0645,-0.064,-0.0641,-0.0617,-0.0611,-0.0602,-0.0573,-0.0566,-0.056,-0.0555,-0.0496,-0.0482,-0.0439,-0.04,-0.039,-0.0341,-0.0358,-0.0217,-0.0214,-0.021,-0.0253,-0.0251,-0.0249,0,0,0,0,0,-0.0647,-0.065,-0.0641,-0.0637,-0.0612,-0.0602,-0.0599,-0.0572,-0.0562,-0.0564,-0.0526,-0.0484,-0.0368,-0.0397,-0.0385,-0.0334,-0.0219,-0.0214,-0.0211,-0.0253,-0.0251,-0.0249,0,0,0,0,0,0,-0.0671,-0.0645,-0.0635,-0.063,-0.0617,-0.0593,-0.0588,-0.0581,-0.0558,-0.0547,-0.0493,-0.0478,-0.0414,-0.0379,-0.0411,-0.0274,-0.0273,-0.0267,-0.0309,-0.0307,-0.0305,-0.0317,-0.0355,0,0,0,0,0,-0.0679,-0.0679,-0.0652,-0.0653,-0.0639,-0.062,-0.0615,-0.0601,-0.0575,-0.0564,-0.0524,-0.0461,-0.039,-0.0358,-0.0299,-0.0256,-0.0217,-0.0202,-0.02,-0.0199,-0.0197,-0.0142,-0.0136,-0.0195,-0.0195,-0.0196,0,0,-0.0689,-0.0677,-0.0676,-0.0659,-0.0642,-0.0639,-0.0613,-0.0605,-0.06,-0.0551,-0.0529,-0.0463,-0.0377,-0.0311,-0.0276,-0.0277,-0.0154,-0.0194,-0.0195,-0.0192,-0.0137,-0.0132,-0.0127,-0.0193,-0.0193,-0.0194,0,0,-0.0717,-0.0694,-0.0704,-0.0697,-0.0678,-0.0658,-0.0659,-0.0636,-0.0613,-0.0595,-0.053,-0.0454,-0.0381,-0.0297,-0.0245,-0.0204,-0.0149,-0.0164,-0.0168,-0.0116,-0.0111,-0.0107,-0.0029,-0.0018,-0.0164,-0.0164,-0.0164,0,-0.0729,-0.0741,-0.0707,-0.0717,-0.0715,-0.0669,-0.0683,-0.0653,-0.0627,-0.0602,-0.0587,-0.0444,-0.0366,-0.0262,-0.0222,-0.0198,-0.016,-0.0191,-0.0117,-0.0112,-0.0107,-0.0029,-0.0015,-0.0165,-0.0165,-0.0165,-0.0165,0,-0.0766,-0.0777,-0.0778,-0.0772,-0.0765,-0.0768,-0.0722,-0.07,-0.0666,-0.0631,-0.0541,-0.0448,-0.0359,-0.0297,-0.0241,-0.0142,-0.0122,-0.0128,-0.0135,-0.0105,-0.0022,-0.0008,-0.0168,-0.0167,-0.0167,-0.0166,0,0,-0.0787,-0.0802,-0.0802,-0.0823,-0.0799,-0.0799,-0.0766,-0.0722,-0.0691,-0.0633,-0.0586,-0.0434,-0.038,-0.0315,-0.0228,-0.0158,-0.0059,-0.0124,-0.012,-0.0067,0.0074,0.01,0.0118,-0.0068,-0.0067,-0.0065,0.0124,0,-0.0825,-0.0869,-0.0859,-0.0896,-0.0911,-0.0864,-0.0841,-0.0792,-0.0723,-0.0659,-0.0536,-0.0454,-0.0388,-0.033,-0.0251,-0.01,-0.0027,-0.0108,0.0056,0.0062,0.0062,0.0134,0.0102,0.0268,0.0138,0.014,0.0142,0,-0.0865,-0.0892,-0.0942,-0.0965,-0.0962,-0.0972,-0.0918,-0.0893,-0.0771,-0.0713,-0.0613,-0.052,-0.0367,-0.0338,-0.0108,-0.0169,-0.0047,0.0054,0.0062,0.0108,0.0114,0.0216,0.0299,0.0166,0.0164,0.0163,0.0161,0,-0.0911,-0.095,-0.0997,-0.1009,-0.1015,-0.1018,-0.1001,-0.091,-0.0877,-0.0742,-0.0693,-0.0533,-0.0428,-0.0285,-0.0047,-0.0083,0.0199,0.0165,0.0299,0.0303,0.0322,0.0324,0.0305,0.0304,0.0304,0.0303,0.0303,0,-0.0971,-0.1008,-0.1028,-0.1059,-0.1101,-0.1078,-0.1077,-0.1021,-0.0931,-0.088,-0.0732,-0.0645,-0.0413,-0.0222,-0.005,0.0196,0.0194,0.0324,0.0356,0.0312,0.031,0.0247,0.0238,0.0311,0.0309,0.0308,0.0306,0,-0.1038,-0.1046,-0.1107,-0.1126,-0.1136,-0.1165,-0.1157,-0.1139,-0.1041,-0.0965,-0.0928,-0.0702,-0.043,-0.018,0.0117,0.0208,0.0427,0.0508,0.0463,0.0484,0.0491,0.0478,0.0651,0.0653,0.0656,0.0657,0.0659,0,-0.1085,-0.1118,-0.1167,-0.1207,-0.123,-0.126,-0.1272,-0.1202,-0.1172,-0.0998,-0.0961,-0.0678,-0.0446,0.0007,0.0268,0.0582,0.0565,0.0664,0.058,0.0515,0.0528,0.0512,0.0496,0.0611,0.0612,0.0613,0.0613,0,-0.1164,-0.1171,-0.1219,-0.1299,-0.1341,-0.1379,-0.1383,-0.1375,-0.1266,-0.1171,-0.0984,-0.0782,-0.0306,0.0066,0.0472,0.0615,0.0604,0.0686,0.0659,0.0509,0.0487,0.0496,0.0481,0.0621,0.062,0.0619,0.0619,0.0619,-0.1214,-0.1251,-0.1301,-0.1384,-0.1438,-0.1477,-0.1488,-0.1453,-0.1388,-0.1189,-0.1,-0.0605,-0.0284,0.0368,0.0556,0.0733,0.0739,0.0733,0.0727,0.072,0.0663,0.0644,0.0799,0.0799,0.0799,0.08,0.08,0,-0.1256,-0.129,-0.1378,-0.1452,-0.1526,-0.1542,-0.1543,-0.1502,-0.1413,-0.1127,-0.0886,-0.0425,0.0007,0.037,0.0666,0.0776,0.0725,0.0762,0.0678,0.0672,0.0667,0.0601,0.0724,0.0724,0.0723,0.0723,0,0,-0.1277,-0.1339,-0.1379,-0.1503,-0.157,-0.1621,-0.1619,-0.1519,-0.1303,-0.1004,-0.0651,-0.0247,0.0174,0.0343,0.0494,0.0636,0.0595,0.0618,0.0672,0.0546,0.0538,0.0655,0.0549,0,0,0,0,0]}],[{"header":{"parameterUnit":"m.s-1","parameterCategory":2,"la1":30.2991,"la2":30.254,"lo1":-89.0895,"lo2":-89.0444,"dy":0.0017,"dx":0.0017,"nx":28,"ny":28,"refTime":"2026-02-03T03:00:00:Z","depth":"4","parameterNumber":2,"parameterNumberName":"U-component_of_CURRENTS"},"data":[0,0,0,0,0,0,0,0,0,0,0,0,0,0,0,0,0,0,0,0,0,0,0,0,0,0,0,0,0,0,0,0,0,0,0,0,0,0,0,0,0,0,0,0,0,0,0,0,0,0,0,0,0,0,0,0,0,0,-0.145,-0.1451,0,-0.1534,-0.1535,-0.1536,-0.1588,-0.1588,-0.1588,-0.1588,-0.1637,-0.1638,-0.164,0,0,0,0,0,0,0,0,0,0,0,0,0,-0.1366,-0.1367,-0.145,-0.1451,-0.1452,-0.1534,-0.1535,-0.1537,-0.1588,-0.1588,-0.1588,-0.1588,-0.1637,-0.1638,-0.164,0,0,0,0,0,0,0,0,0,0,0,0,0,-0.1422,-0.1367,-0.145,-0.1487,-0.1491,-0.1534,-0.1535,-0.1537,-0.1588,-0.1588,-0.1588,-0.1588,-0.1637,-0.1638,-0.164,-0.1645,0,0,-0.1645,-0.1646,0,0,0,0,0,0,0,0,-0.1419,-0.1425,-0.1481,-0.1484,-0.1489,-0.155,-0.1524,-0.1571,-0.1588,-0.1552,-0.1588,-0.1589,-0.1604,-0.1608,-0.1626,-0.1648,-0.165,-0.1645,-0.1646,-0.1647,-0.1648,0,0,0,0,0,0,0,-0.1415,-0.1422,-0.1485,-0.1481,-0.1487,-0.151,-0.1518,-0.1533,-0.1576,-0.1555,-0.1559,-0.1567,-0.1606,-0.1624,-0.1627,-0.165,-0.1645,-0.1647,-0.1648,-0.1648,-0.1746,-0.1748,0,0,0,0,0,0,-0.1401,-0.1418,-0.1482,-0.1487,-0.1453,-0.1511,-0.152,-0.1531,-0.1576,-0.1584,-0.1566,-0.1569,-0.1621,-0.1625,-0.1629,-0.1702,-0.1647,-0.1649,-0.165,-0.1745,-0.1747,-0.1748,0,0,0,0,0,0,-0.1399,-0.1406,-0.1479,-0.1454,-0.1464,-0.1512,-0.1524,-0.1532,-0.1576,-0.1585,-0.1592,-0.1604,-0.1621,-0.1626,-0.1672,-0.1702,-0.1649,-0.1651,-0.1743,-0.1745,-0.1748,-0.1807,0,0,0,0,0,0,-0.1396,-0.1405,-0.1425,-0.1453,-0.1465,-0.1519,-0.1524,-0.1534,-0.1578,-0.1583,-0.1619,-0.1622,-0.1622,-0.167,-0.1674,-0.1703,-0.1652,-0.1741,-0.1744,-0.1747,-0.1803,-0.1811,-0.1818,0,0,0,0,0,-0.1393,-0.1414,-0.1426,-0.1434,-0.1486,-0.152,-0.1529,-0.1564,-0.158,-0.1604,-0.1635,-0.1623,-0.1691,-0.1673,-0.1677,-0.1707,-0.174,-0.1743,-0.1747,-0.1799,-0.1809,-0.1817,0,0,0,0,0,0,-0.1385,-0.1422,-0.1435,-0.1466,-0.1498,-0.1529,-0.1563,-0.158,-0.1625,-0.1638,-0.1646,-0.1652,-0.1702,-0.1699,-0.1678,-0.1744,-0.1712,-0.1717,-0.1751,-0.176,-0.1767,-0.1756,-0.1654,0,0,0,0,0,-0.1392,-0.1425,-0.1452,-0.1482,-0.1501,-0.1538,-0.1563,-0.1582,-0.1616,-0.1638,-0.1663,-0.1689,-0.1716,-0.1734,-0.1753,-0.1792,-0.1773,-0.1813,-0.1821,-0.1827,-0.1822,-0.1832,-0.184,-0.176,-0.176,-0.176,0,0,-0.1401,-0.1424,-0.1445,-0.1485,-0.1518,-0.1548,-0.1556,-0.16,-0.1627,-0.1634,-0.1695,-0.1718,-0.1733,-0.1778,-0.1799,-0.1782,-0.184,-0.1831,-0.1837,-0.1828,-0.1837,-0.1844,-0.1851,-0.1762,-0.1762,-0.1762,0,0,-0.1425,-0.1455,-0.149,-0.1515,-0.156,-0.1578,-0.1594,-0.1639,-0.1666,-0.1716,-0.1732,-0.1775,-0.1817,-0.1835,-0.1847,-0.1906,-0.1879,-0.1918,-0.1948,-0.1959,-0.1965,-0.1971,-0.1951,-0.1954,-0.1921,-0.1922,-0.1922,0,-0.1431,-0.1472,-0.1505,-0.1537,-0.156,-0.1593,-0.1623,-0.1655,-0.1708,-0.1734,-0.1742,-0.1825,-0.1839,-0.1891,-0.1915,-0.1922,-0.1915,-0.1913,-0.1968,-0.1972,-0.1977,-0.1955,-0.1958,-0.1925,-0.1924,-0.1924,-0.1924,0,-0.1472,-0.1509,-0.1533,-0.1582,-0.1613,-0.1645,-0.168,-0.1718,-0.1754,-0.1783,-0.1851,-0.1882,-0.1928,-0.1946,-0.195,-0.1998,-0.1978,-0.1976,-0.1941,-0.1988,-0.1962,-0.1964,-0.1929,-0.1928,-0.1927,-0.1927,0,0,-0.145,-0.1543,-0.1547,-0.1578,-0.1634,-0.1658,-0.1709,-0.1757,-0.1795,-0.1851,-0.1903,-0.1962,-0.1988,-0.2002,-0.2022,-0.2036,-0.2062,-0.2025,-0.2024,-0.1998,-0.2071,-0.1906,-0.1892,-0.2077,-0.2077,-0.2078,-0.2038,0,-0.1464,-0.1529,-0.157,-0.1626,-0.1659,-0.17,-0.1742,-0.1792,-0.184,-0.1897,-0.1941,-0.1999,-0.2006,-0.2041,-0.206,-0.2068,-0.2071,-0.2072,-0.2035,-0.2033,-0.1875,-0.1889,-0.2081,-0.2039,-0.2039,-0.2039,-0.2039,0,-0.1465,-0.1514,-0.1579,-0.1648,-0.1667,-0.1706,-0.1772,-0.1812,-0.1891,-0.1933,-0.1999,-0.2038,-0.2089,-0.2082,-0.2105,-0.211,-0.2093,-0.2086,-0.2084,-0.1907,-0.1871,-0.1984,-0.2041,-0.2041,-0.2041,-0.2041,-0.2041,0,-0.1414,-0.15,-0.1554,-0.1579,-0.1674,-0.171,-0.1752,-0.183,-0.1866,-0.196,-0.2003,-0.207,-0.2106,-0.2112,-0.2104,-0.2114,-0.2103,-0.211,-0.1939,-0.1927,-0.2062,-0.2057,-0.2107,-0.2107,-0.2107,-0.2107,-0.2107,0,-0.138,-0.1419,-0.1544,-0.157,-0.1626,-0.1697,-0.1752,-0.1807,-0.1889,-0.1926,-0.2022,-0.2051,-0.2118,-0.2124,-0.2109,-0.2012,-0.2103,-0.1929,-0.1903,-0.2087,-0.2085,-0.2062,-0.2057,-0.2105,-0.2106,-0.2106,-0.2106,0,-0.1301,-0.1388,-0.1456,-0.1574,-0.1607,-0.1646,-0.1734,-0.1763,-0.1862,-0.1912,-0.1945,-0.2043,-0.2043,-0.2069,-0.2066,-0.1989,-0.1932,-0.1873,-0.2047,-0.2034,-0.1747,-0.1747,-0.1674,-0.1667,-0.1662,-0.1658,-0.1654,0,-0.1267,-0.1301,-0.1437,-0.1478,-0.1534,-0.1601,-0.1632,-0.1733,-0.1762,-0.1879,-0.1886,-0.1941,-0.198,-0.1837,-0.1887,-0.1819,-0.1798,-0.1745,-0.176,-0.1719,-0.1703,-0.171,-0.1717,-0.1646,-0.1644,-0.1643,-0.1642,0,-0.1194,-0.1259,-0.1316,-0.1399,-0.1456,-0.1494,-0.1551,-0.1563,-0.1664,-0.1776,-0.1762,-0.1749,-0.1739,-0.1725,-0.1676,-0.1638,-0.177,-0.169,-0.1701,-0.1715,-0.1685,-0.1675,-0.1688,-0.1624,-0.1626,-0.1628,-0.1629,0,-0.114,-0.1157,-0.1241,-0.1297,-0.1361,-0.1364,-0.141,-0.1427,-0.1464,-0.1599,-0.1582,-0.1641,-0.1718,-0.1628,-0.1591,-0.1529,-0.1507,-0.1443,-0.1467,-0.1488,-0.1443,-0.1378,-0.1185,0,0,0,0,0,-0.1079,-0.1078,-0.1125,-0.1174,-0.1225,-0.1251,-0.1342,-0.1392,-0.15,-0.1435,-0.1502,-0.1481,-0.1427,-0.1463,-0.1358,-0.1506,-0.1517,-0.1376,-0.1459,-0.1523,-0.1544,-0.1508,0,0,0,0,0,0,-0.1041,-0.107,-0.1085,-0.1051,-0.1046,-0.1072,-0.1122,-0.1199,-0.1175,-0.1296,-0.1279,-0.1352,-0.1334,-0.1449,-0.1314,-0.1319,-0.1329,-0.1411,-0.1405,-0.1511,-0.153,-0.1547,-0.1518,0,0,0,0,0]},{"header":{"parameterUnit":"m.s-1","parameterCategory":2,"la1":30.2991,"la2":30.254,"lo1":-89.0895,"lo2":-89.0444,"dy":0.0017,"dx":0.0017,"nx":28,"ny":28,"refTime":"2026-02-03T03:00:00:Z","depth":"4","parameterNumber":3,"parameterNumberName":"V-component_of_CURRENTS"},"data":[0,0,0,0,0,0,0,0,0,0,0,0,0,0,0,0,0,0,0,0,0,0,0,0,0,0,0,0,0,0,0,0,0,0,0,0,0,0,0,0,0,0,0,0,0,0,0,0,0,0,0,0,0,0,0,0,0,0,-0.043,-0.043,0,-0.044,-0.044,-0.044,-0.0444,-0.0444,-0.0444,-0.0443,-0.0394,-0.0393,-0.0392,0,0,0,0,0,0,0,0,0,0,0,0,0,-0.0446,-0.0446,-0.043,-0.043,-0.043,-0.044,-0.044,-0.044,-0.0444,-0.0444,-0.0444,-0.0443,-0.0394,-0.0393,-0.0392,0,0,0,0,0,0,0,0,0,0,0,0,0,-0.0448,-0.0446,-0.043,-0.0431,-0.0431,-0.044,-0.044,-0.0441,-0.0444,-0.0444,-0.0444,-0.0443,-0.0395,-0.0393,-0.0391,-0.0391,0,0,-0.0387,-0.0386,0,0,0,0,0,0,0,0,-0.0448,-0.0448,-0.0431,-0.0431,-0.0431,-0.0438,-0.0427,-0.042,-0.0445,-0.0442,-0.0443,-0.0443,-0.0401,-0.0399,-0.0407,-0.0388,-0.0386,-0.0387,-0.0386,-0.0385,-0.0384,0,0,0,0,0,0,0,-0.0448,-0.0448,-0.0437,-0.0431,-0.043,-0.0441,-0.0441,-0.0427,-0.0425,-0.0443,-0.0442,-0.0438,-0.0401,-0.0409,-0.0406,-0.0386,-0.0387,-0.0385,-0.0384,-0.0384,-0.036,-0.036,0,0,0,0,0,0,-0.044,-0.0448,-0.0437,-0.0437,-0.0435,-0.044,-0.0441,-0.0438,-0.0427,-0.0424,-0.0439,-0.0439,-0.0412,-0.0408,-0.0404,-0.0408,-0.0385,-0.0383,-0.0383,-0.0359,-0.036,-0.036,0,0,0,0,0,0,-0.044,-0.0439,-0.0436,-0.044,-0.044,-0.044,-0.0438,-0.0439,-0.0452,-0.0424,-0.0421,-0.0451,-0.0411,-0.0406,-0.0409,-0.0406,-0.0383,-0.0381,-0.0359,-0.0359,-0.036,-0.0413,0,0,0,0,0,0,-0.044,-0.0439,-0.0443,-0.0439,-0.0439,-0.0447,-0.0438,-0.0439,-0.0448,-0.0448,-0.0433,-0.0428,-0.041,-0.0411,-0.0407,-0.0403,-0.038,-0.0359,-0.0359,-0.036,-0.0411,-0.0415,-0.0419,0,0,0,0,0,-0.0441,-0.0446,-0.0444,-0.0442,-0.0443,-0.0447,-0.0449,-0.0449,-0.0449,-0.0459,-0.0457,-0.0429,-0.0411,-0.0411,-0.0406,-0.0401,-0.0358,-0.0359,-0.036,-0.0409,-0.0414,-0.0419,0,0,0,0,0,0,-0.0455,-0.0447,-0.0444,-0.0446,-0.0448,-0.0447,-0.0454,-0.0456,-0.0465,-0.0466,-0.0444,-0.0439,-0.0437,-0.0415,-0.0416,-0.0395,-0.0375,-0.0375,-0.0414,-0.0419,-0.0423,-0.0414,-0.0379,0,0,0,0,0,-0.046,-0.0467,-0.0455,-0.0463,-0.0458,-0.0459,-0.0464,-0.0467,-0.0467,-0.0472,-0.0461,-0.0446,-0.0436,-0.0426,-0.0414,-0.0408,-0.0352,-0.0398,-0.0402,-0.0406,-0.0395,-0.0323,-0.0319,-0.0362,-0.0362,-0.0362,0,0,-0.047,-0.0466,-0.047,-0.0468,-0.0467,-0.0477,-0.0462,-0.0472,-0.0486,-0.0463,-0.0479,-0.0464,-0.044,-0.0437,-0.0431,-0.0417,-0.0362,-0.0406,-0.041,-0.0396,-0.0324,-0.0319,-0.0315,-0.0363,-0.0363,-0.0363,0,0,-0.0493,-0.0484,-0.0496,-0.0501,-0.0501,-0.0498,-0.0502,-0.0502,-0.0504,-0.0518,-0.0503,-0.0492,-0.0479,-0.046,-0.0448,-0.0465,-0.0391,-0.0455,-0.0462,-0.0394,-0.039,-0.0385,-0.03,-0.0287,-0.0451,-0.0451,-0.0451,0,-0.0504,-0.0519,-0.0503,-0.0517,-0.0528,-0.0508,-0.053,-0.0528,-0.0535,-0.0532,-0.0527,-0.0503,-0.0487,-0.047,-0.0477,-0.0472,-0.0412,-0.045,-0.0398,-0.0393,-0.0387,-0.03,-0.0286,-0.0454,-0.0454,-0.0453,-0.0453,0,-0.0536,-0.0553,-0.0559,-0.057,-0.058,-0.0595,-0.0584,-0.0588,-0.0583,-0.0575,-0.0562,-0.054,-0.0518,-0.0511,-0.0501,-0.0456,-0.0419,-0.0417,-0.0385,-0.0385,-0.0295,-0.0278,-0.0458,-0.0457,-0.0456,-0.0455,0,0,-0.0547,-0.0576,-0.0579,-0.0606,-0.0613,-0.0627,-0.0634,-0.0632,-0.0633,-0.0615,-0.0605,-0.0585,-0.0555,-0.0538,-0.0514,-0.0455,-0.0369,-0.0418,-0.0413,-0.0331,-0.0192,-0.0197,-0.0178,-0.0353,-0.0351,-0.0349,-0.0142,0,-0.0577,-0.0621,-0.0628,-0.068,-0.0702,-0.0694,-0.0707,-0.0703,-0.0682,-0.0661,-0.0609,-0.0592,-0.0569,-0.0556,-0.0494,-0.0404,-0.0329,-0.0424,-0.0205,-0.0198,-0.0201,-0.0162,-0.0342,-0.0129,-0.0125,-0.0123,-0.0121,0,-0.0608,-0.0635,-0.069,-0.0742,-0.075,-0.078,-0.0791,-0.0799,-0.0751,-0.073,-0.0679,-0.0629,-0.0546,-0.0529,-0.0345,-0.0402,-0.0297,-0.0219,-0.021,-0.0182,-0.0173,-0.013,-0.009,-0.0092,-0.0095,-0.0097,-0.0099,0,-0.0631,-0.0683,-0.0733,-0.0752,-0.0795,-0.0824,-0.0842,-0.0823,-0.0826,-0.0762,-0.074,-0.0633,-0.057,-0.043,-0.0263,-0.0295,-0.0038,-0.0067,0.0037,0.0039,0.0004,-0.0003,0.0079,0.0078,0.0078,0.0077,0.0077,0,-0.0663,-0.0707,-0.0755,-0.0787,-0.0852,-0.0867,-0.0911,-0.0905,-0.0879,-0.0867,-0.0777,-0.0721,-0.0539,-0.0376,-0.0237,-0.0031,-0.0007,0.0059,0.0095,-0.0023,-0.0035,0.0017,0.0007,0.0085,0.0083,0.0082,0.0081,0,-0.0688,-0.0715,-0.0783,-0.0843,-0.0872,-0.0919,-0.0975,-0.0989,-0.0957,-0.0929,-0.0907,-0.0756,-0.0529,-0.0325,-0.0068,0.0001,0.0191,0.026,0.0156,0.0179,0.0217,0.0202,0.0384,0.0386,0.0387,0.0388,0.0389,0,-0.0701,-0.0736,-0.0827,-0.0876,-0.0916,-0.0983,-0.1025,-0.1031,-0.1032,-0.0946,-0.0921,-0.0706,-0.0577,-0.0189,-0.0003,0.0298,0.0311,0.0385,0.0263,0.0233,0.0251,0.0233,0.0216,0.0391,0.0392,0.0392,0.0393,0,-0.0723,-0.076,-0.0812,-0.0914,-0.0984,-0.1054,-0.1106,-0.1109,-0.1084,-0.1055,-0.0894,-0.0706,-0.0437,-0.0166,0.009,0.0278,0.0313,0.0399,0.0396,0.0282,0.0244,0.0256,0.0238,0.0397,0.0397,0.0396,0.0396,0,-0.0735,-0.0775,-0.0847,-0.0936,-0.1028,-0.1094,-0.1124,-0.11,-0.1088,-0.0982,-0.0919,-0.0646,-0.0482,-0.0172,0.0051,0.0258,0.0263,0.0242,0.0247,0.0244,0.0115,0.0041,0.0185,0,0,0,0,0,-0.0739,-0.0782,-0.0864,-0.0955,-0.105,-0.1105,-0.116,-0.1168,-0.1133,-0.1019,-0.0966,-0.0709,-0.0369,-0.0215,-0.0,0.0041,0.0276,0.0284,0.0249,0.0424,0.0418,0.0287,0,0,0,0,0,0,-0.0738,-0.0811,-0.0852,-0.0953,-0.102,-0.1114,-0.1153,-0.1139,-0.1061,-0.0994,-0.0779,-0.0705,-0.0334,-0.0449,0.0005,0.0062,0.0045,0.0455,0.0456,0.0427,0.0422,0.0417,0.0281,0,0,0,0,0]}]]